Time,TemperatureF,DewpointF,PressureIn,WindDirection,WindDirectionDegrees,WindSpeedMPH,WindSpeedGustMPH,Humidity,HourlyPrecipIn,Conditions,Clouds,dailyrainin,SoftwareType,DateUTC
2013-06-21 00:02:00,64.4,53.2,30.29,SSW,202,0.0,3.0,67,0.00,,,0.00,meteohub,2013-06-21 04:02:00,
2013-06-21 00:07:00,64.2,53.4,30.29,SSW,202,0.0,3.0,68,0.00,,,0.00,meteohub,2013-06-21 04:07:00,
2013-06-21 00:12:00,64.2,53.4,30.29,South,180,1.0,6.0,68,0.00,,,0.00,meteohub,2013-06-21 04:12:00,
2013-06-21 00:17:00,64.0,53.2,30.29,South,180,1.0,6.0,68,0.00,,,0.00,meteohub,2013-06-21 04:17:00,
2013-06-21 00:22:00,64.0,53.2,30.32,South,180,2.0,6.0,68,0.00,,,0.00,meteohub,2013-06-21 04:22:00,
2013-06-21 00:27:00,63.9,53.1,30.32,South,180,2.0,4.0,68,0.00,,,0.00,meteohub,2013-06-21 04:27:00,
2013-06-21 00:32:00,63.7,53.2,30.32,SSE,158,1.0,4.0,69,0.00,,,0.00,meteohub,2013-06-21 04:32:00,
2013-06-21 00:37:00,63.7,52.9,30.29,SSW,202,0.0,3.0,68,0.00,,,0.00,meteohub,2013-06-21 04:37:00,
2013-06-21 00:42:00,63.7,52.9,30.29,South,180,2.0,3.0,68,0.00,,,0.00,meteohub,2013-06-21 04:42:00,
2013-06-21 00:47:00,63.5,53.2,30.29,SW,225,1.0,3.0,69,0.00,,,0.00,meteohub,2013-06-21 04:47:00,
2013-06-21 00:52:00,63.1,52.9,30.29,SSW,202,0.0,2.0,69,0.00,,,0.00,meteohub,2013-06-21 04:52:00,
2013-06-21 00:57:00,63.1,52.9,30.29,South,180,2.0,5.0,69,0.00,,,0.00,meteohub,2013-06-21 04:57:00,
2013-06-21 01:02:00,63.0,52.7,30.29,South,180,2.0,5.0,69,0.00,,,0.00,meteohub,2013-06-21 05:02:00,
2013-06-21 01:07:00,63.0,53.1,30.29,South,180,2.0,3.0,70,0.00,,,0.00,meteohub,2013-06-21 05:07:00,
2013-06-21 01:12:00,62.8,52.9,30.29,SW,225,2.0,4.0,70,0.00,,,0.00,meteohub,2013-06-21 05:12:00,
2013-06-21 01:17:00,62.8,52.9,30.29,South,180,1.0,4.0,70,0.00,,,0.00,meteohub,2013-06-21 05:17:00,
2013-06-21 01:22:00,62.6,52.7,30.29,WSW,248,3.0,4.0,70,0.00,,,0.00,meteohub,2013-06-21 05:22:00,
2013-06-21 01:27:00,62.4,52.5,30.29,SSE,158,1.0,4.0,70,0.00,,,0.00,meteohub,2013-06-21 05:27:00,
2013-06-21 01:32:00,62.2,52.3,30.29,South,180,4.0,4.0,70,0.00,,,0.00,meteohub,2013-06-21 05:32:00,
2013-06-21 01:37:00,62.1,52.2,30.29,West,270,2.0,6.0,70,0.00,,,0.00,meteohub,2013-06-21 05:37:00,
2013-06-21 01:42:00,62.1,52.2,30.29,SW,225,0.0,6.0,70,0.00,,,0.00,meteohub,2013-06-21 05:42:00,
2013-06-21 01:47:00,61.9,52.0,30.29,South,180,2.0,6.0,70,0.00,,,0.00,meteohub,2013-06-21 05:47:00,
2013-06-21 01:52:00,61.9,52.0,30.29,SSE,158,3.0,6.0,70,0.00,,,0.00,meteohub,2013-06-21 05:52:00,
2013-06-21 01:57:00,61.9,52.0,30.29,SSW,202,2.0,6.0,70,0.00,,,0.00,meteohub,2013-06-21 05:57:00,
2013-06-21 02:02:00,61.7,51.8,30.29,SW,225,0.0,3.0,70,0.00,,,0.00,meteohub,2013-06-21 06:02:00,
2013-06-21 02:07:00,61.7,51.8,30.29,SSW,202,2.0,3.0,70,0.00,,,0.00,meteohub,2013-06-21 06:07:00,
2013-06-21 02:12:00,61.5,51.6,30.29,SSE,158,1.0,4.0,70,0.00,,,0.00,meteohub,2013-06-21 06:12:00,
2013-06-21 02:17:00,61.3,51.8,30.29,SSW,202,0.0,4.0,71,0.00,,,0.00,meteohub,2013-06-21 06:17:00,
2013-06-21 02:22:00,61.3,51.8,30.29,WSW,248,2.0,3.0,71,0.00,,,0.00,meteohub,2013-06-21 06:22:00,
2013-06-21 02:27:00,61.2,51.6,30.29,SSW,202,0.0,3.0,71,0.00,,,0.00,meteohub,2013-06-21 06:27:00,
2013-06-21 02:32:00,61.0,52.0,30.29,South,180,1.0,3.0,72,0.00,,,0.00,meteohub,2013-06-21 06:32:00,
2013-06-21 02:37:00,61.0,52.0,30.29,South,180,2.0,3.0,72,0.00,,,0.00,meteohub,2013-06-21 06:37:00,
2013-06-21 02:42:00,60.8,51.8,30.29,SSW,202,0.0,4.0,72,0.00,,,0.00,meteohub,2013-06-21 06:42:00,
2013-06-21 02:47:00,60.8,51.8,30.29,WSW,248,1.0,4.0,72,0.00,,,0.00,meteohub,2013-06-21 06:47:00,
2013-06-21 02:52:00,60.6,52.0,30.26,South,180,2.0,4.0,73,0.00,,,0.00,meteohub,2013-06-21 06:52:00,
2013-06-21 02:57:00,60.6,52.0,30.26,NNW,338,1.0,4.0,73,0.00,,,0.00,meteohub,2013-06-21 06:57:00,
2013-06-21 03:02:00,60.4,51.8,30.26,West,270,1.0,4.0,73,0.00,,,0.00,meteohub,2013-06-21 07:02:00,
2013-06-21 03:07:00,60.4,51.8,30.29,South,180,2.0,4.0,73,0.00,,,0.00,meteohub,2013-06-21 07:07:00,
2013-06-21 03:12:00,60.3,52.0,30.29,SE,135,4.0,4.0,74,0.00,,,0.00,meteohub,2013-06-21 07:12:00,
2013-06-21 03:17:00,60.3,51.6,30.29,South,180,3.0,4.0,73,0.00,,,0.00,meteohub,2013-06-21 07:17:00,
2013-06-21 03:22:00,60.1,51.8,30.29,SW,225,0.0,6.0,74,0.00,,,0.00,meteohub,2013-06-21 07:22:00,
2013-06-21 03:27:00,60.1,51.8,30.29,South,180,0.0,6.0,74,0.00,,,0.00,meteohub,2013-06-21 07:27:00,
2013-06-21 03:32:00,60.1,51.8,30.29,SSW,202,0.0,4.0,74,0.00,,,0.00,meteohub,2013-06-21 07:32:00,
2013-06-21 03:37:00,59.9,52.0,30.29,SSE,158,1.0,3.0,75,0.00,,,0.00,meteohub,2013-06-21 07:37:00,
2013-06-21 03:42:00,59.7,51.8,30.29,SSW,202,1.0,3.0,75,0.00,,,0.00,meteohub,2013-06-21 07:42:00,
2013-06-21 03:47:00,59.7,52.2,30.29,South,180,3.0,3.0,76,0.00,,,0.00,meteohub,2013-06-21 07:47:00,
2013-06-21 03:52:00,59.7,52.2,30.29,South,180,2.0,3.0,76,0.00,,,0.00,meteohub,2013-06-21 07:52:00,
2013-06-21 03:57:00,59.7,52.5,30.29,WSW,248,3.0,3.0,77,0.00,,,0.00,meteohub,2013-06-21 07:57:00,
2013-06-21 04:02:00,59.7,52.5,30.29,South,180,3.0,5.0,77,0.00,,,0.00,meteohub,2013-06-21 08:02:00,
2013-06-21 04:07:00,59.5,52.7,30.26,SSW,202,0.0,5.0,78,0.00,,,0.00,meteohub,2013-06-21 08:07:00,
2013-06-21 04:12:00,59.5,52.7,30.26,WSW,248,3.0,5.0,78,0.00,,,0.00,meteohub,2013-06-21 08:12:00,
2013-06-21 04:17:00,59.4,52.5,30.26,SSE,158,1.0,4.0,78,0.00,,,0.00,meteohub,2013-06-21 08:17:00,
2013-06-21 04:22:00,59.4,52.9,30.26,SSW,202,1.0,3.0,79,0.00,,,0.00,meteohub,2013-06-21 08:22:00,
2013-06-21 04:27:00,59.4,52.9,30.26,SW,225,1.0,6.0,79,0.00,,,0.00,meteohub,2013-06-21 08:27:00,
2013-06-21 04:32:00,59.4,53.2,30.26,South,180,2.0,6.0,80,0.00,,,0.00,meteohub,2013-06-21 08:32:00,
2013-06-21 04:37:00,59.4,53.2,30.29,SW,225,0.0,6.0,80,0.00,,,0.00,meteohub,2013-06-21 08:37:00,
2013-06-21 04:42:00,59.4,53.2,30.29,North,0,0.0,6.0,80,0.00,,,0.00,meteohub,2013-06-21 08:42:00,
2013-06-21 04:47:00,59.4,53.2,30.29,SSW,202,1.0,6.0,80,0.00,,,0.00,meteohub,2013-06-21 08:47:00,
2013-06-21 04:52:00,59.4,53.2,30.26,SSW,202,0.0,6.0,80,0.00,,,0.00,meteohub,2013-06-21 08:52:00,
2013-06-21 04:57:00,59.4,53.2,30.26,South,180,1.0,4.0,80,0.00,,,0.00,meteohub,2013-06-21 08:57:00,
2013-06-21 05:02:00,59.2,53.1,30.26,WNW,292,2.0,5.0,80,0.00,,,0.00,meteohub,2013-06-21 09:02:00,
2013-06-21 05:07:00,59.2,53.4,30.29,South,180,1.0,5.0,81,0.00,,,0.00,meteohub,2013-06-21 09:07:00,
2013-06-21 05:12:00,59.2,53.4,30.29,SW,225,0.0,5.0,81,0.00,,,0.00,meteohub,2013-06-21 09:12:00,
2013-06-21 05:17:00,59.2,53.4,30.29,South,180,3.0,3.0,81,0.00,,,0.00,meteohub,2013-06-21 09:17:00,
2013-06-21 05:22:00,59.2,53.4,30.29,SSW,202,1.0,6.0,81,0.00,,,0.00,meteohub,2013-06-21 09:22:00,
2013-06-21 05:27:00,59.0,53.2,30.29,South,180,1.0,6.0,81,0.00,,,0.00,meteohub,2013-06-21 09:27:00,
2013-06-21 05:32:00,59.2,53.4,30.29,SSW,202,1.0,6.0,81,0.00,,,0.00,meteohub,2013-06-21 09:32:00,
2013-06-21 05:37:00,59.2,53.4,30.29,SSW,202,2.0,4.0,81,0.00,,,0.00,meteohub,2013-06-21 09:37:00,
2013-06-21 05:42:00,59.2,53.4,30.29,SSW,202,1.0,4.0,81,0.00,,,0.00,meteohub,2013-06-21 09:42:00,
2013-06-21 05:47:00,59.2,53.8,30.29,South,180,0.0,4.0,82,0.00,,,0.00,meteohub,2013-06-21 09:47:00,
2013-06-21 05:52:00,59.4,53.6,30.29,SW,225,3.0,4.0,81,0.00,,,0.00,meteohub,2013-06-21 09:52:00,
2013-06-21 05:57:00,59.2,53.8,30.29,SSE,158,4.0,6.0,82,0.00,,,0.00,meteohub,2013-06-21 09:57:00,
2013-06-21 06:02:00,59.4,53.8,30.29,WSW,248,2.0,6.0,82,0.00,,,0.00,meteohub,2013-06-21 10:02:00,
2013-06-21 06:07:00,59.4,53.8,30.29,SSW,202,1.0,6.0,82,0.00,,,0.00,meteohub,2013-06-21 10:07:00,
2013-06-21 06:12:00,59.4,53.8,30.29,SW,225,2.0,6.0,82,0.00,,,0.00,meteohub,2013-06-21 10:12:00,
2013-06-21 06:17:00,59.5,53.8,30.29,South,180,4.0,6.0,81,0.00,,,0.00,meteohub,2013-06-21 10:17:00,
2013-06-21 06:22:00,59.5,53.8,30.32,South,180,0.0,6.0,81,0.00,,,0.00,meteohub,2013-06-21 10:22:00,
2013-06-21 06:27:00,59.7,54.0,30.32,SSW,202,0.0,4.0,81,0.00,,,0.00,meteohub,2013-06-21 10:27:00,
2013-06-21 06:32:00,59.7,54.1,30.32,SW,225,3.0,5.0,82,0.00,,,0.00,meteohub,2013-06-21 10:32:00,
2013-06-21 06:37:00,59.9,54.3,30.32,South,180,6.0,6.0,82,0.00,,,0.00,meteohub,2013-06-21 10:37:00,
2013-06-21 06:42:00,60.1,54.3,30.32,SSE,158,3.0,6.0,81,0.00,,,0.00,meteohub,2013-06-21 10:42:00,
2013-06-21 06:47:00,60.3,54.5,30.32,South,180,3.0,6.0,81,0.00,,,0.00,meteohub,2013-06-21 10:47:00,
2013-06-21 06:52:00,60.4,54.5,30.32,West,270,3.0,6.0,81,0.00,,,0.00,meteohub,2013-06-21 10:52:00,
2013-06-21 06:57:00,60.6,54.7,30.32,SSE,158,2.0,6.0,81,0.00,,,0.00,meteohub,2013-06-21 10:57:00,
2013-06-21 07:02:00,60.8,54.7,30.32,South,180,1.0,6.0,80,0.00,,,0.00,meteohub,2013-06-21 11:02:00,
2013-06-21 07:07:00,61.0,54.5,30.29,South,180,3.0,6.0,79,0.00,,,0.00,meteohub,2013-06-21 11:07:00,
2013-06-21 07:12:00,61.3,54.9,30.29,SSW,202,3.0,6.0,79,0.00,,,0.00,meteohub,2013-06-21 11:12:00,
2013-06-21 07:17:00,61.7,55.0,30.29,SW,225,5.0,6.0,79,0.00,,,0.00,meteohub,2013-06-21 11:17:00,
2013-06-21 07:22:00,61.9,55.0,30.32,SW,225,3.0,6.0,78,0.00,,,0.00,meteohub,2013-06-21 11:22:00,
2013-06-21 07:27:00,61.9,55.2,30.32,SW,225,4.0,6.0,79,0.00,,,0.00,meteohub,2013-06-21 11:27:00,
2013-06-21 07:32:00,62.4,55.0,30.32,SSE,158,3.0,6.0,77,0.00,,,0.00,meteohub,2013-06-21 11:32:00,
2013-06-21 07:37:00,62.6,55.2,30.29,SSE,158,4.0,6.0,77,0.00,,,0.00,meteohub,2013-06-21 11:37:00,
2013-06-21 07:42:00,63.0,55.2,30.29,SSE,158,3.0,6.0,76,0.00,,,0.00,meteohub,2013-06-21 11:42:00,
2013-06-21 07:47:00,63.0,55.2,30.29,SSW,202,0.0,6.0,76,0.00,,,0.00,meteohub,2013-06-21 11:47:00,
2013-06-21 07:52:00,63.3,55.2,30.32,SSW,202,6.0,6.0,75,0.00,,,0.00,meteohub,2013-06-21 11:52:00,
2013-06-21 07:57:00,63.7,55.6,30.32,SW,225,0.0,6.0,75,0.00,,,0.00,meteohub,2013-06-21 11:57:00,
2013-06-21 08:02:00,64.0,55.6,30.32,WNW,292,4.0,6.0,74,0.00,,,0.00,meteohub,2013-06-21 12:02:00,
2013-06-21 08:07:00,64.2,55.8,30.29,West,270,3.0,6.0,74,0.00,,,0.00,meteohub,2013-06-21 12:07:00,
2013-06-21 08:12:00,64.8,55.9,30.29,SSW,202,3.0,7.0,73,0.00,,,0.00,meteohub,2013-06-21 12:12:00,
2013-06-21 08:17:00,65.1,55.9,30.29,South,180,4.0,7.0,72,0.00,,,0.00,meteohub,2013-06-21 12:17:00,
2013-06-21 08:22:00,65.5,56.7,30.29,WSW,248,2.0,4.0,73,0.00,,,0.00,meteohub,2013-06-21 12:22:00,
2013-06-21 08:27:00,65.7,56.8,30.29,SSE,158,1.0,8.0,73,0.00,,,0.00,meteohub,2013-06-21 12:27:00,
2013-06-21 08:32:00,66.0,57.2,30.29,SSW,202,4.0,8.0,73,0.00,,,0.00,meteohub,2013-06-21 12:32:00,
2013-06-21 08:37:00,66.4,57.0,30.29,SW,225,2.0,6.0,72,0.00,,,0.00,meteohub,2013-06-21 12:37:00,
2013-06-21 08:47:00,67.1,57.0,30.29,South,180,3.0,9.0,70,0.00,,,0.00,meteohub,2013-06-21 12:47:00,
2013-06-21 08:52:00,67.5,57.0,30.29,WSW,248,6.0,9.0,69,0.00,,,0.00,meteohub,2013-06-21 12:52:00,
2013-06-21 08:57:00,67.5,57.0,30.29,SW,225,4.0,8.0,69,0.00,,,0.00,meteohub,2013-06-21 12:57:00,
2013-06-21 09:02:00,67.8,57.7,30.29,SW,225,0.0,8.0,70,0.00,,,0.00,meteohub,2013-06-21 13:02:00,
2013-06-21 09:07:00,68.0,57.4,30.29,West,270,2.0,6.0,69,0.00,,,0.00,meteohub,2013-06-21 13:07:00,
2013-06-21 09:17:00,68.2,58.1,30.29,West,270,0.0,5.0,70,0.00,,,0.00,meteohub,2013-06-21 13:17:00,
2013-06-21 09:22:00,68.5,57.6,30.29,SSW,202,1.0,5.0,68,0.00,,,0.00,meteohub,2013-06-21 13:22:00,
2013-06-21 09:27:00,69.1,58.5,30.29,SSE,158,6.0,6.0,69,0.00,,,0.00,meteohub,2013-06-21 13:27:00,
2013-06-21 09:32:00,69.6,59.0,30.29,WSW,248,0.0,6.0,69,0.00,,,0.00,meteohub,2013-06-21 13:32:00,
2013-06-21 09:37:00,70.2,58.6,30.29,South,180,2.0,6.0,67,0.00,,,0.00,meteohub,2013-06-21 13:37:00,
2013-06-21 09:47:00,71.2,58.8,30.29,SW,225,1.0,4.0,65,0.00,,,0.00,meteohub,2013-06-21 13:47:00,
2013-06-21 09:52:00,71.6,60.1,30.29,SSW,202,0.0,6.0,67,0.00,,,0.00,meteohub,2013-06-21 13:52:00,
2013-06-21 09:57:00,72.0,59.2,30.29,South,180,3.0,6.0,64,0.00,,,0.00,meteohub,2013-06-21 13:57:00,
2013-06-21 10:02:00,72.1,59.7,30.29,WSW,248,2.0,6.0,65,0.00,,,0.00,meteohub,2013-06-21 14:02:00,
2013-06-21 10:07:00,72.5,59.2,30.29,WSW,248,2.0,6.0,63,0.00,,,0.00,meteohub,2013-06-21 14:07:00,
2013-06-21 10:17:00,73.4,60.4,30.29,SSW,202,1.0,6.0,64,0.00,,,0.00,meteohub,2013-06-21 14:17:00,
2013-06-21 10:22:00,73.9,60.6,30.29,South,180,1.0,6.0,63,0.00,,,0.00,meteohub,2013-06-21 14:22:00,
2013-06-21 10:27:00,73.9,60.6,30.29,SSW,202,2.0,5.0,63,0.00,,,0.00,meteohub,2013-06-21 14:27:00,
2013-06-21 10:32:00,74.1,60.3,30.29,SW,225,4.0,6.0,62,0.00,,,0.00,meteohub,2013-06-21 14:32:00,
2013-06-21 10:37:00,74.5,59.2,30.29,WNW,292,2.0,6.0,59,0.00,,,0.00,meteohub,2013-06-21 14:37:00,
2013-06-21 10:42:00,74.5,59.7,30.29,West,270,2.0,6.0,60,0.00,,,0.00,meteohub,2013-06-21 14:42:00,
2013-06-21 10:47:00,74.1,59.4,30.29,NNW,338,2.0,4.0,60,0.00,,,0.00,meteohub,2013-06-21 14:47:00,
2013-06-21 10:52:00,74.3,59.5,30.32,WNW,292,1.0,4.0,60,0.00,,,0.00,meteohub,2013-06-21 14:52:00,
2013-06-21 10:57:00,74.7,59.9,30.32,WSW,248,3.0,7.0,60,0.00,,,0.00,meteohub,2013-06-21 14:57:00,
2013-06-21 11:02:00,75.0,59.7,30.32,WSW,248,3.0,7.0,59,0.00,,,0.00,meteohub,2013-06-21 15:02:00,
2013-06-21 11:07:00,75.0,59.2,30.32,SSW,202,3.0,7.0,58,0.00,,,0.00,meteohub,2013-06-21 15:07:00,
2013-06-21 11:12:00,75.2,57.9,30.32,South,180,3.0,6.0,55,0.00,,,0.00,meteohub,2013-06-21 15:12:00,
2013-06-21 11:22:00,75.7,59.4,30.29,NW,315,2.0,6.0,57,0.00,,,0.00,meteohub,2013-06-21 15:22:00,
2013-06-21 11:27:00,75.6,59.2,30.29,WSW,248,2.0,5.0,57,0.00,,,0.00,meteohub,2013-06-21 15:27:00,
2013-06-21 11:32:00,75.4,59.2,30.29,SSW,202,3.0,3.0,57,0.00,,,0.00,meteohub,2013-06-21 15:32:00,
2013-06-21 11:37:00,75.4,58.1,30.32,SW,225,3.0,4.0,55,0.00,,,0.00,meteohub,2013-06-21 15:37:00,
2013-06-21 11:47:00,75.7,57.9,30.32,SSW,202,2.0,4.0,54,0.00,,,0.00,meteohub,2013-06-21 15:47:00,
2013-06-21 11:52:00,76.1,58.3,30.29,ESE,112,3.0,6.0,54,0.00,,,0.00,meteohub,2013-06-21 15:52:00,
2013-06-21 11:57:00,76.3,59.0,30.29,NW,315,0.0,6.0,55,0.00,,,0.00,meteohub,2013-06-21 15:57:00,
2013-06-21 12:02:00,76.3,59.0,30.29,WNW,292,1.0,6.0,55,0.00,,,0.00,meteohub,2013-06-21 16:02:00,
2013-06-21 12:07:00,76.1,57.7,30.32,North,0,0.0,5.0,53,0.00,,,0.00,meteohub,2013-06-21 16:07:00,
2013-06-21 12:12:00,76.1,57.2,30.32,North,0,1.0,3.0,52,0.00,,,0.00,meteohub,2013-06-21 16:12:00,
2013-06-21 12:17:00,76.1,57.2,30.32,SW,225,2.0,3.0,52,0.00,,,0.00,meteohub,2013-06-21 16:17:00,
2013-06-21 12:27:00,77.2,57.0,30.29,SSE,158,2.0,4.0,50,0.00,,,0.00,meteohub,2013-06-21 16:27:00,
2013-06-21 12:32:00,77.4,57.7,30.29,West,270,6.0,6.0,51,0.00,,,0.00,meteohub,2013-06-21 16:32:00,
2013-06-21 12:37:00,77.9,58.3,30.29,SSE,158,2.0,6.0,51,0.00,,,0.00,meteohub,2013-06-21 16:37:00,
2013-06-21 12:42:00,78.1,57.9,30.29,NNW,338,1.0,6.0,50,0.00,,,0.00,meteohub,2013-06-21 16:42:00,
2013-06-21 12:52:00,77.5,56.8,30.29,North,0,2.0,4.0,49,0.00,,,0.00,meteohub,2013-06-21 16:52:00,
2013-06-21 12:57:00,77.5,56.8,30.29,SSW,202,1.0,3.0,49,0.00,,,0.00,meteohub,2013-06-21 16:57:00,
2013-06-21 13:02:00,77.4,57.2,30.29,WSW,248,2.0,7.0,50,0.00,,,0.00,meteohub,2013-06-21 17:02:00,
2013-06-21 13:07:00,77.4,57.2,30.32,WNW,292,1.0,7.0,50,0.00,,,0.00,meteohub,2013-06-21 17:07:00,
2013-06-21 13:17:00,77.7,56.5,30.32,NW,315,2.0,3.0,48,0.00,,,0.00,meteohub,2013-06-21 17:17:00,
2013-06-21 13:22:00,77.7,57.0,30.29,SSW,202,1.0,3.0,49,0.00,,,0.00,meteohub,2013-06-21 17:22:00,
2013-06-21 13:27:00,78.1,57.4,30.29,SW,225,2.0,4.0,49,0.00,,,0.00,meteohub,2013-06-21 17:27:00,
2013-06-21 13:32:00,78.3,57.6,30.29,WNW,292,2.0,4.0,49,0.00,,,0.00,meteohub,2013-06-21 17:32:00,
2013-06-21 13:47:00,78.6,56.7,30.29,NNW,338,1.0,6.0,47,0.00,,,0.00,meteohub,2013-06-21 17:47:00,
2013-06-21 13:52:00,78.4,56.5,30.29,NNW,338,3.0,6.0,47,0.00,,,0.00,meteohub,2013-06-21 17:52:00,
2013-06-21 13:57:00,78.4,55.4,30.29,West,270,1.0,3.0,45,0.00,,,0.00,meteohub,2013-06-21 17:57:00,
2013-06-21 14:02:00,78.3,56.3,30.29,SW,225,3.0,3.0,47,0.00,,,0.00,meteohub,2013-06-21 18:02:00,
2013-06-21 14:07:00,78.3,56.3,30.29,WNW,292,0.0,4.0,47,0.00,,,0.00,meteohub,2013-06-21 18:07:00,
2013-06-21 14:13:00,78.4,56.5,30.29,NW,315,1.0,5.0,47,0.00,,,0.00,meteohub,2013-06-21 18:13:00,
2013-06-21 14:22:00,79.2,55.4,30.26,NNW,338,2.0,5.0,44,0.00,,,0.00,meteohub,2013-06-21 18:22:00,
2013-06-21 14:27:00,79.2,55.9,30.26,NW,315,2.0,4.0,45,0.00,,,0.00,meteohub,2013-06-21 18:27:00,
2013-06-21 14:32:00,79.3,56.1,30.26,WSW,248,0.0,4.0,45,0.00,,,0.00,meteohub,2013-06-21 18:32:00,
2013-06-21 14:37:00,79.7,56.5,30.29,WSW,248,0.0,6.0,45,0.00,,,0.00,meteohub,2013-06-21 18:37:00,
2013-06-21 14:42:00,79.7,56.5,30.29,NW,315,1.0,6.0,45,0.00,,,0.00,meteohub,2013-06-21 18:42:00,
2013-06-21 14:47:00,79.7,56.5,30.29,West,270,3.0,6.0,45,0.00,,,0.00,meteohub,2013-06-21 18:47:00,
2013-06-21 14:52:00,79.3,56.1,30.26,WSW,248,3.0,4.0,45,0.00,,,0.00,meteohub,2013-06-21 18:52:00,
2013-06-21 14:57:00,79.0,55.8,30.26,WSW,248,0.0,4.0,45,0.00,,,0.00,meteohub,2013-06-21 18:57:00,
2013-06-21 15:02:00,78.3,55.8,30.26,WNW,292,3.0,4.0,46,0.00,,,0.00,meteohub,2013-06-21 19:02:00,
2013-06-21 15:12:00,78.1,56.3,30.29,NW,315,1.0,5.0,47,0.00,,,0.00,meteohub,2013-06-21 19:12:00,
2013-06-21 15:18:00,78.3,55.8,30.29,North,0,0.0,5.0,46,0.00,,,0.00,meteohub,2013-06-21 19:18:00,
2013-06-21 15:27:00,78.3,57.0,30.26,SSE,158,1.0,2.0,48,0.00,,,0.00,meteohub,2013-06-21 19:27:00,
2013-06-21 15:32:00,78.1,55.6,30.26,NNW,338,2.0,5.0,46,0.00,,,0.00,meteohub,2013-06-21 19:32:00,
2013-06-21 15:37:00,78.1,55.6,30.26,NW,315,1.0,5.0,46,0.00,,,0.00,meteohub,2013-06-21 19:37:00,
2013-06-21 15:42:00,77.9,56.1,30.26,NNW,338,0.0,5.0,47,0.00,,,0.00,meteohub,2013-06-21 19:42:00,
2013-06-21 15:47:00,78.3,56.3,30.26,NW,315,0.0,3.0,47,0.00,,,0.00,meteohub,2013-06-21 19:47:00,
2013-06-21 15:52:00,78.8,56.8,30.26,SW,225,1.0,2.0,47,0.00,,,0.00,meteohub,2013-06-21 19:52:00,
2013-06-21 15:57:00,79.0,57.0,30.26,WNW,292,0.0,4.0,47,0.00,,,0.00,meteohub,2013-06-21 19:57:00,
2013-06-21 16:02:00,79.2,57.2,30.26,West,270,2.0,4.0,47,0.00,,,0.00,meteohub,2013-06-21 20:02:00,
2013-06-21 16:07:00,79.3,56.8,30.26,South,180,3.0,4.0,46,0.00,,,0.00,meteohub,2013-06-21 20:07:00,
2013-06-21 16:12:00,79.5,55.0,30.26,West,270,0.0,4.0,43,0.00,,,0.00,meteohub,2013-06-21 20:12:00,
2013-06-21 16:17:00,79.5,55.8,30.26,West,270,0.0,4.0,44,0.00,,,0.00,meteohub,2013-06-21 20:17:00,
2013-06-21 16:22:00,79.5,55.8,30.23,NW,315,1.0,3.0,44,0.00,,,0.00,meteohub,2013-06-21 20:22:00,
2013-06-21 16:27:00,79.9,54.1,30.23,NNW,338,2.0,4.0,41,0.00,,,0.00,meteohub,2013-06-21 20:27:00,
2013-06-21 16:32:00,80.1,54.3,30.23,WNW,292,0.0,4.0,41,0.00,,,0.00,meteohub,2013-06-21 20:32:00,
2013-06-21 16:37:00,79.9,53.4,30.26,North,0,3.0,3.0,40,0.00,,,0.00,meteohub,2013-06-21 20:37:00,
2013-06-21 16:42:00,79.5,53.1,30.26,NNW,338,0.0,4.0,40,0.00,,,0.00,meteohub,2013-06-21 20:42:00,
2013-06-21 16:47:00,79.2,53.4,30.26,NW,315,2.0,4.0,41,0.00,,,0.00,meteohub,2013-06-21 20:47:00,
2013-06-21 16:57:00,79.0,54.5,30.23,West,270,2.0,3.0,43,0.00,,,0.00,meteohub,2013-06-21 20:57:00,
2013-06-21 17:02:00,78.6,54.9,30.23,NW,315,0.0,3.0,44,0.00,,,0.00,meteohub,2013-06-21 21:02:00,
2013-06-21 17:07:00,77.9,54.3,30.23,WNW,292,0.0,3.0,44,0.00,,,0.00,meteohub,2013-06-21 21:07:00,
2013-06-21 17:12:00,77.9,54.9,30.23,NNE,22,0.0,3.0,45,0.00,,,0.00,meteohub,2013-06-21 21:12:00,
2013-06-21 17:17:00,78.3,55.2,30.23,WSW,248,3.0,0.0,45,0.00,,,0.00,meteohub,2013-06-21 21:17:00,
2013-06-21 17:22:00,78.4,55.9,30.23,WNW,292,0.0,3.0,46,0.00,,,0.00,meteohub,2013-06-21 21:22:00,
2013-06-21 17:27:00,78.6,55.6,30.23,NW,315,2.0,3.0,45,0.00,,,0.00,meteohub,2013-06-21 21:27:00,
2013-06-21 17:32:00,79.0,55.2,30.23,WSW,248,2.0,3.0,44,0.00,,,0.00,meteohub,2013-06-21 21:32:00,
2013-06-21 17:37:00,79.2,55.4,30.23,NW,315,2.0,4.0,44,0.00,,,0.00,meteohub,2013-06-21 21:37:00,
2013-06-21 17:42:00,79.2,55.4,30.23,SW,225,2.0,4.0,44,0.00,,,0.00,meteohub,2013-06-21 21:42:00,
2013-06-21 17:47:00,79.2,55.9,30.23,WSW,248,0.0,3.0,45,0.00,,,0.00,meteohub,2013-06-21 21:47:00,
2013-06-21 17:57:00,78.8,56.3,30.20,SW,225,0.0,3.0,46,0.00,,,0.00,meteohub,2013-06-21 21:57:00,
2013-06-21 18:02:00,78.4,55.9,30.20,SW,225,2.0,3.0,46,0.00,,,0.00,meteohub,2013-06-21 22:02:00,
2013-06-21 18:07:00,78.4,55.9,30.23,SW,225,0.0,3.0,46,0.00,,,0.00,meteohub,2013-06-21 22:07:00,
2013-06-21 18:12:00,78.4,56.5,30.23,SW,225,0.0,3.0,47,0.00,,,0.00,meteohub,2013-06-21 22:12:00,
2013-06-21 18:17:00,78.4,56.5,30.23,South,180,2.0,2.0,47,0.00,,,0.00,meteohub,2013-06-21 22:17:00,
2013-06-21 18:22:00,78.8,56.3,30.23,SSW,202,0.0,2.0,46,0.00,,,0.00,meteohub,2013-06-21 22:22:00,
2013-06-21 18:27:00,78.6,57.4,30.23,SSW,202,0.0,2.0,48,0.00,,,0.00,meteohub,2013-06-21 22:27:00,
2013-06-21 18:32:00,78.6,57.9,30.23,SW,225,0.0,2.0,49,0.00,,,0.00,meteohub,2013-06-21 22:32:00,
2013-06-21 18:37:00,78.6,57.9,30.23,SW,225,0.0,0.0,49,0.00,,,0.00,meteohub,2013-06-21 22:37:00,
2013-06-21 18:42:00,78.6,57.9,30.23,SSW,202,0.0,0.0,49,0.00,,,0.00,meteohub,2013-06-21 22:42:00,
2013-06-21 18:47:00,78.6,57.9,30.23,SSW,202,0.0,0.0,49,0.00,,,0.00,meteohub,2013-06-21 22:47:00,
2013-06-21 18:52:00,78.4,57.7,30.23,SSW,202,0.0,0.0,49,0.00,,,0.00,meteohub,2013-06-21 22:52:00,
2013-06-21 18:57:00,78.4,58.3,30.23,SSW,202,0.0,0.0,50,0.00,,,0.00,meteohub,2013-06-21 22:57:00,
2013-06-21 19:02:00,78.3,58.1,30.23,SSW,202,0.0,0.0,50,0.00,,,0.00,meteohub,2013-06-21 23:02:00,
2013-06-21 19:07:00,78.1,58.5,30.23,SW,225,0.0,0.0,51,0.00,,,0.00,meteohub,2013-06-21 23:07:00,
2013-06-21 19:12:00,77.9,58.3,30.23,SSW,202,2.0,0.0,51,0.00,,,0.00,meteohub,2013-06-21 23:12:00,
2013-06-21 19:17:00,77.7,58.1,30.23,SSW,202,0.0,2.0,51,0.00,,,0.00,meteohub,2013-06-21 23:17:00,
2013-06-21 19:22:00,77.5,57.9,30.23,SSW,202,0.0,2.0,51,0.00,,,0.00,meteohub,2013-06-21 23:22:00,
2013-06-21 19:27:00,77.4,57.7,30.23,SSW,202,0.0,2.0,51,0.00,,,0.00,meteohub,2013-06-21 23:27:00,
2013-06-21 19:32:00,77.4,57.7,30.23,South,180,0.0,1.0,51,0.00,,,0.00,meteohub,2013-06-21 23:32:00,
2013-06-21 19:37:00,77.2,57.7,30.23,SSW,202,0.0,1.0,51,0.00,,,0.00,meteohub,2013-06-21 23:37:00,
2013-06-21 19:42:00,77.2,58.3,30.23,South,180,0.0,1.0,52,0.00,,,0.00,meteohub,2013-06-21 23:42:00,
2013-06-21 19:47:00,77.0,58.6,30.23,South,180,0.0,1.0,53,0.00,,,0.00,meteohub,2013-06-21 23:47:00,
2013-06-21 19:52:00,76.8,58.5,30.26,SSE,158,0.0,0.0,53,0.00,,,0.00,meteohub,2013-06-21 23:52:00,
2013-06-21 19:57:00,76.6,58.8,30.26,South,180,0.0,0.0,54,0.00,,,0.00,meteohub,2013-06-21 23:57:00,
2013-06-21 20:02:00,76.5,59.2,30.26,South,180,0.0,0.0,55,0.00,,,0.00,meteohub,2013-06-22 00:02:00,
2013-06-21 20:07:00,76.3,59.4,30.26,South,180,2.0,3.0,56,0.00,,,0.00,meteohub,2013-06-22 00:07:00,
2013-06-21 20:12:00,76.1,59.7,30.26,South,180,1.0,3.0,57,0.00,,,0.00,meteohub,2013-06-22 00:12:00,
2013-06-21 20:17:00,75.7,60.4,30.26,South,180,0.0,4.0,59,0.00,,,0.00,meteohub,2013-06-22 00:17:00,
2013-06-21 20:27:00,75.2,60.4,30.26,South,180,0.0,4.0,60,0.00,,,0.00,meteohub,2013-06-22 00:27:00,
2013-06-21 20:32:00,75.0,60.6,30.26,SSE,158,3.0,5.0,61,0.00,,,0.00,meteohub,2013-06-22 00:32:00,
2013-06-21 20:37:00,74.8,60.4,30.26,South,180,1.0,5.0,61,0.00,,,0.00,meteohub,2013-06-22 00:37:00,
2013-06-21 20:42:00,74.7,60.3,30.26,SSW,202,1.0,4.0,61,0.00,,,0.00,meteohub,2013-06-22 00:42:00,
2013-06-21 20:47:00,74.5,60.6,30.26,South,180,2.0,3.0,62,0.00,,,0.00,meteohub,2013-06-22 00:47:00,
2013-06-21 20:52:00,74.1,60.3,30.26,South,180,0.0,3.0,62,0.00,,,0.00,meteohub,2013-06-22 00:52:00,
2013-06-21 20:57:00,73.9,60.1,30.26,South,180,0.0,2.0,62,0.00,,,0.00,meteohub,2013-06-22 00:57:00,
2013-06-21 21:02:00,73.9,60.6,30.26,South,180,0.0,2.0,63,0.00,,,0.00,meteohub,2013-06-22 01:02:00,
2013-06-21 21:07:00,73.6,60.6,30.26,SSW,202,0.0,2.0,64,0.00,,,0.00,meteohub,2013-06-22 01:07:00,
2013-06-21 21:12:00,73.6,60.6,30.26,South,180,0.0,2.0,64,0.00,,,0.00,meteohub,2013-06-22 01:12:00,
2013-06-21 21:17:00,73.4,60.4,30.26,SW,225,0.0,2.0,64,0.00,,,0.00,meteohub,2013-06-22 01:17:00,
2013-06-21 21:22:00,73.2,60.8,30.29,SSE,158,0.0,1.0,65,0.00,,,0.00,meteohub,2013-06-22 01:22:00,
2013-06-21 21:27:00,73.0,61.0,30.29,SSW,202,2.0,3.0,66,0.00,,,0.00,meteohub,2013-06-22 01:27:00,
2013-06-21 21:32:00,73.0,61.0,30.29,SSW,202,0.0,3.0,66,0.00,,,0.00,meteohub,2013-06-22 01:32:00,
2013-06-21 21:37:00,72.9,61.3,30.29,SSW,202,0.0,3.0,67,0.00,,,0.00,meteohub,2013-06-22 01:37:00,
2013-06-21 21:42:00,72.7,61.2,30.29,South,180,2.0,3.0,67,0.00,,,0.00,meteohub,2013-06-22 01:42:00,
2013-06-21 21:47:00,72.5,61.0,30.29,SSE,158,4.0,6.0,67,0.00,,,0.00,meteohub,2013-06-22 01:47:00,
2013-06-21 21:52:00,72.3,60.8,30.29,SSW,202,2.0,6.0,67,0.00,,,0.00,meteohub,2013-06-22 01:52:00,
2013-06-21 21:57:00,72.1,60.6,30.29,South,180,3.0,6.0,67,0.00,,,0.00,meteohub,2013-06-22 01:57:00,
2013-06-21 22:02:00,72.1,60.6,30.29,South,180,3.0,6.0,67,0.00,,,0.00,meteohub,2013-06-22 02:02:00,
2013-06-21 22:12:00,71.6,60.1,30.29,South,180,0.0,6.0,67,0.00,,,0.00,meteohub,2013-06-22 02:12:00,
2013-06-21 22:17:00,71.6,60.1,30.29,SSE,158,2.0,5.0,67,0.00,,,0.00,meteohub,2013-06-22 02:17:00,
2013-06-21 22:22:00,71.4,59.9,30.29,South,180,3.0,4.0,67,0.00,,,0.00,meteohub,2013-06-22 02:22:00,
2013-06-21 22:27:00,71.2,59.7,30.29,South,180,0.0,4.0,67,0.00,,,0.00,meteohub,2013-06-22 02:27:00,
2013-06-21 22:32:00,71.2,59.7,30.29,SSE,158,0.0,4.0,67,0.00,,,0.00,meteohub,2013-06-22 02:32:00,
2013-06-21 22:37:00,70.9,59.4,30.29,SW,225,2.0,4.0,67,0.00,,,0.00,meteohub,2013-06-22 02:37:00,
2013-06-21 22:42:00,70.9,59.0,30.29,SSE,158,2.0,4.0,66,0.00,,,0.00,meteohub,2013-06-22 02:42:00,
2013-06-21 22:47:00,70.7,59.2,30.29,South,180,2.0,5.0,67,0.00,,,0.00,meteohub,2013-06-22 02:47:00,
2013-06-21 22:52:00,70.5,58.6,30.29,SSW,202,0.0,5.0,66,0.00,,,0.00,meteohub,2013-06-22 02:52:00,
2013-06-21 22:57:00,70.3,58.8,30.29,South,180,0.0,4.0,67,0.00,,,0.00,meteohub,2013-06-22 02:57:00,
2013-06-21 23:02:00,70.2,58.6,30.29,SW,225,1.0,4.0,67,0.00,,,0.00,meteohub,2013-06-22 03:02:00,
2013-06-21 23:07:00,70.0,58.5,30.29,SSW,202,1.0,4.0,67,0.00,,,0.00,meteohub,2013-06-22 03:07:00,
2013-06-21 23:12:00,69.8,58.3,30.29,South,180,0.0,4.0,67,0.00,,,0.00,meteohub,2013-06-22 03:12:00,
2013-06-21 23:17:00,69.8,57.9,30.29,South,180,1.0,5.0,66,0.00,,,0.00,meteohub,2013-06-22 03:17:00,
2013-06-21 23:22:00,69.8,57.9,30.29,WSW,248,3.0,5.0,66,0.00,,,0.00,meteohub,2013-06-22 03:22:00,
2013-06-21 23:27:00,69.6,57.7,30.29,SSE,158,2.0,5.0,66,0.00,,,0.00,meteohub,2013-06-22 03:27:00,
2013-06-21 23:32:00,69.4,57.2,30.29,South,180,2.0,5.0,65,0.00,,,0.00,meteohub,2013-06-22 03:32:00,
2013-06-21 23:37:00,69.4,57.2,30.29,SW,225,1.0,6.0,65,0.00,,,0.00,meteohub,2013-06-22 03:37:00,
2013-06-21 23:42:00,69.3,57.0,30.29,South,180,2.0,6.0,65,0.00,,,0.00,meteohub,2013-06-22 03:42:00,
2013-06-21 23:47:00,69.1,56.8,30.29,South,180,2.0,4.0,65,0.00,,,0.00,meteohub,2013-06-22 03:47:00,
2013-06-21 23:52:00,68.9,57.0,30.29,South,180,2.0,4.0,66,0.00,,,0.00,meteohub,2013-06-22 03:52:00,
2013-06-21 23:57:00,68.7,56.8,30.29,SSW,202,1.0,4.0,66,0.00,,,0.00,meteohub,2013-06-22 03:57:00,